Weather History for Montgomery, NY

Change the Weather History Date:

Thursday, November 21, 2013

  Actual Average (KPOU) Record (KPOU)
Temperature  
Mean Temperature 32 °F 40 °F  
Max Temperature 46 °F 50 °F 65 °F (1956)
Min Temperature 17 °F 30 °F 11 °F (1951)
Degree Days  
Heating Degree Days 34 25  
Month to date heating degree days 460  
Since 1 July heating degree days 1036  
Cooling Degree Days 0 0  
Month to date cooling degree days 0  
Year to date cooling degree days 672  
Moisture  
Dew Point 23 °F    
Average Humidity 68    
Maximum Humidity 85    
Minimum Humidity 43    
Precipitation  
Precipitation 0.00 in 0.12 in 0.80 in (1991)
Month to date precipitation 2.40  
Year to date precipitation 41.93  
Sea Level Pressure  
Sea Level Pressure 30.53 in    
Wind  
Wind Speed 0 mph (NW)    
Max Wind Speed 4 mph    
Max Gust Speed -    
Visibility 10 miles    
Events      
T = Trace of Precipitation, MM = Missing Value Source: NWS Daily Summary

Daily Weather History Graph

Daily Weather History Graph

Search for Another Location

Airport:

Trip Planner

Search our weather history database for the weather conditions in past years. The results will help you decide how hot, cold, wet, or windy it might be!

Date:

Astronomy

Nov. 21, 2013 Rise Set
Actual Time 6:53 AM EST 4:32 PM EST
Civil Twilight 6:22 AM EST 5:02 PM EST
Nautical Twilight 5:49 AM EST 5:36 PM EST
Astronomical Twilight 5:16 AM EST 6:09 PM EST
Moon 8:07 PM EST (11/21) 9:57 AM EST (11/21)
Length of Visible Light 10h 39m
Length of Day
9h 39m
Waning Gibbous, 85% of the Moon is Illuminated
Nov 21
Waning Gibbous
Nov 25
Last Quarter
Dec 2
New
Dec 9
First Quarter
Dec 17
Full

Hourly Weather History & Observations

Time (EST) Temp. Windchill Dew Point Humidity Pressure Visibility Wind Dir Wind Speed Gust Speed Precip Events Conditions
12:54 AM 21.9 °F - 17.1 °F 82% 30.62 in 10.0 mi Calm Calm - N/A   Clear
1:54 AM 21.0 °F - 17.1 °F 85% 30.63 in 10.0 mi Calm Calm - N/A   Clear
2:54 AM 21.0 °F - 17.1 °F 85% 30.63 in 10.0 mi Calm Calm - N/A   Clear
3:54 AM 19.0 °F - 15.1 °F 85% 30.63 in 10.0 mi Calm Calm - N/A   Clear
4:54 AM 19.0 °F - 15.1 °F 85% 30.62 in 10.0 mi Calm Calm - N/A   Clear
5:54 AM 17.1 °F - 12.9 °F 84% 30.64 in 10.0 mi Calm Calm - N/A   Clear
6:54 AM 17.1 °F - 12.9 °F 84% 30.64 in 10.0 mi Calm Calm - N/A   Clear
7:54 AM 21.0 °F - 17.1 °F 85% 30.63 in 10.0 mi Calm Calm - N/A   Clear
8:54 AM 28.0 °F - 19.9 °F 72% 30.62 in 10.0 mi Calm Calm - N/A   Clear
9:54 AM 34.0 °F - 21.0 °F 59% 30.62 in 10.0 mi Calm Calm - N/A   Mostly Cloudy
10:54 AM 37.0 °F - 19.0 °F 48% 30.59 in 10.0 mi Calm Calm - N/A   Overcast
11:54 AM 41.0 °F 39.0 °F 19.9 °F 43% 30.55 in 10.0 mi NNW 3.5 mph - N/A   Partly Cloudy
12:54 PM 44.1 °F - 23.0 °F 43% 30.52 in 10.0 mi Calm Calm - N/A   Clear
1:54 PM 46.9 °F - 26.1 °F 44% 30.48 in 10.0 mi Calm Calm - N/A   Overcast
2:54 PM 46.9 °F - 28.0 °F 48% 30.47 in 10.0 mi WSW 3.5 mph - N/A   Scattered Clouds
3:54 PM 46.9 °F - 27.0 °F 46% 30.46 in - Calm Calm - N/A   Unknown
4:54 PM 43.0 °F 41.3 °F 30.0 °F 60% 30.45 in 10.0 mi North 3.5 mph - N/A   Overcast
5:54 PM 42.1 °F - 28.9 °F 60% 30.44 in 10.0 mi Calm Calm - N/A   Overcast
6:54 PM 39.9 °F - 30.9 °F 70% 30.44 in 10.0 mi Calm Calm - N/A   Overcast
7:54 PM 39.9 °F - 32.0 °F 73% 30.43 in 10.0 mi Calm Calm - N/A   Overcast
8:54 PM 41.0 °F - 30.9 °F 67% 30.42 in 10.0 mi Calm Calm - N/A   Overcast
9:54 PM 41.0 °F - 32.0 °F 70% 30.41 in 10.0 mi Calm Calm - N/A   Overcast
10:54 PM 41.0 °F - 32.0 °F 70% 30.40 in 10.0 mi Calm Calm - N/A   Overcast
11:54 PM 39.9 °F - 33.1 °F 77% 30.37 in 10.0 mi Calm Calm - N/A   Overcast